Time,TemperatureF,DewpointF,PressureIn,WindDirection,WindDirectionDegrees,WindSpeedMPH,WindSpeedGustMPH,Humidity,HourlyPrecipIn,Conditions,Clouds,dailyrainin,SoftwareType,DateUTC
2013-03-06 00:02:00,58.0,58.0,29.76,North,5,9.0,-999.0,100,-99.99,,,-99.99,,2013-03-06 05:02:00,
2013-03-06 00:12:00,58.0,58.0,29.76,North,5,9.0,-999.0,100,-99.99,,,-99.99,,2013-03-06 05:12:00,
2013-03-06 00:22:00,58.0,58.0,29.76,North,5,9.0,-999.0,100,-99.99,,,-99.99,,2013-03-06 05:22:00,
2013-03-06 00:32:00,57.0,57.0,29.76,North,360,4.0,-999.0,100,-99.99,,,-99.99,,2013-03-06 05:32:00,
2013-03-06 00:42:00,57.0,57.0,29.76,North,360,4.0,-999.0,100,-99.99,,,-99.99,,2013-03-06 05:42:00,
2013-03-06 00:52:00,57.0,57.0,29.76,North,11,4.0,-999.0,100,-99.99,,,-99.99,,2013-03-06 05:52:00,
2013-03-06 01:02:00,57.0,57.0,29.76,NE,35,5.0,-999.0,100,-99.99,,,-99.99,,2013-03-06 06:02:00,
2013-03-06 01:11:00,57.0,57.0,29.76,NE,35,5.0,-999.0,100,-99.99,,,-99.99,,2013-03-06 06:11:00,
2013-03-06 01:22:00,57.0,57.0,29.75,ENE,63,6.0,-999.0,100,-99.99,,,-99.99,,2013-03-06 06:22:00,
2013-03-06 01:32:00,57.0,57.0,29.75,NNE,22,5.0,-999.0,100,-99.99,,,-99.99,,2013-03-06 06:32:00,
2013-03-06 01:42:00,57.0,57.0,29.75,NNE,22,5.0,-999.0,100,-99.99,,,-99.99,,2013-03-06 06:42:00,
2013-03-06 01:52:00,57.0,57.0,29.75,NNE,22,5.0,-999.0,100,-99.99,,,-99.99,,2013-03-06 06:52:00,
2013-03-06 02:01:00,57.0,57.0,29.74,NNE,30,7.0,-999.0,100,-99.99,,,-99.99,,2013-03-06 07:01:00,
2013-03-06 02:11:00,57.0,57.0,29.74,NNE,30,7.0,-999.0,100,-99.99,,,-99.99,,2013-03-06 07:11:00,
2013-03-06 02:22:00,55.0,55.0,29.74,ENE,59,6.0,-999.0,100,-99.99,,,-99.99,,2013-03-06 07:22:00,
2013-03-06 02:32:00,55.0,55.0,29.74,NNE,30,7.0,-999.0,100,-99.99,,,-99.99,,2013-03-06 07:32:00,
2013-03-06 02:42:00,55.0,55.0,29.74,NNE,30,7.0,-999.0,100,-99.99,,,-99.99,,2013-03-06 07:42:00,
2013-03-06 02:52:00,55.0,55.0,29.74,NNE,22,7.0,-999.0,100,-99.99,,,-99.99,,2013-03-06 07:52:00,
2013-03-06 03:01:00,54.0,54.0,29.75,ENE,60,7.0,-999.0,100,-99.99,,,-99.99,,2013-03-06 08:01:00,
2013-03-06 03:11:00,54.0,54.0,29.75,ENE,60,7.0,-999.0,100,-99.99,,,-99.99,,2013-03-06 08:11:00,
2013-03-06 04:02:00,48.0,22.0,29.79,ENE,78,12.0,-999.0,36,-99.99,,,-99.99,,2013-03-06 09:02:00,
2013-03-06 04:12:00,48.0,22.0,29.79,ENE,78,12.0,-999.0,36,-99.99,,,-99.99,,2013-03-06 09:12:00,
2013-03-06 04:22:00,47.0,24.0,29.80,ENE,73,11.0,-999.0,40,-99.99,,,-99.99,,2013-03-06 09:22:00,
2013-03-06 04:32:00,46.0,15.0,29.81,NE,52,8.0,-999.0,28,-99.99,,,-99.99,,2013-03-06 09:32:00,
2013-03-06 04:42:00,46.0,15.0,29.81,NE,52,8.0,-999.0,28,-99.99,,,-99.99,,2013-03-06 09:42:00,
2013-03-06 04:52:00,46.0,22.0,29.82,NE,53,11.0,-999.0,38,-99.99,,,-99.99,,2013-03-06 09:52:00,
2013-03-06 05:02:00,45.0,21.0,29.82,ENE,57,13.0,-999.0,38,-99.99,,,-99.99,,2013-03-06 10:02:00,
2013-03-06 05:12:00,45.0,21.0,29.82,ENE,57,13.0,-999.0,38,-99.99,,,-99.99,,2013-03-06 10:12:00,
2013-03-06 05:22:00,45.0,22.0,29.83,ENE,62,12.0,-999.0,40,-99.99,,,-99.99,,2013-03-06 10:22:00,
2013-03-06 05:32:00,45.0,23.0,29.83,NNE,23,10.0,-999.0,42,-99.99,,,-99.99,,2013-03-06 10:32:00,
2013-03-06 05:42:00,45.0,23.0,29.83,NNE,23,10.0,-999.0,42,-99.99,,,-99.99,,2013-03-06 10:42:00,
2013-03-06 05:52:00,44.0,23.0,29.83,ESE,110,8.0,-999.0,43,-99.99,,,-99.99,,2013-03-06 10:52:00,
2013-03-06 06:02:00,44.0,25.0,29.84,NE,42,8.0,-999.0,47,-99.99,,,-99.99,,2013-03-06 11:02:00,
2013-03-06 06:11:00,44.0,25.0,29.84,NE,42,8.0,-999.0,47,-99.99,,,-99.99,,2013-03-06 11:11:00,
2013-03-06 06:22:00,44.0,24.0,29.83,NE,51,7.0,-999.0,45,-99.99,,,-99.99,,2013-03-06 11:22:00,
2013-03-06 06:32:00,44.0,27.0,29.84,ENE,57,9.0,-999.0,51,-99.99,,,-99.99,,2013-03-06 11:32:00,
2013-03-06 06:42:00,44.0,27.0,29.84,ENE,57,9.0,-999.0,51,-99.99,,,-99.99,,2013-03-06 11:42:00,
2013-03-06 06:52:00,43.0,25.0,29.84,ENE,60,8.0,-999.0,49,-99.99,,,-99.99,,2013-03-06 11:52:00,
2013-03-06 07:02:00,43.0,25.0,29.83,NNE,24,8.0,-999.0,48,-99.99,,,-99.99,,2013-03-06 12:02:00,
2013-03-06 07:12:00,43.0,25.0,29.83,NNE,24,8.0,-999.0,48,-99.99,,,-99.99,,2013-03-06 12:12:00,
2013-03-06 07:22:00,43.0,23.0,29.85,NE,52,8.0,-999.0,45,-99.99,,,-99.99,,2013-03-06 12:22:00,
2013-03-06 07:33:00,43.0,23.0,29.85,NE,52,8.0,-999.0,45,-99.99,,,-99.99,,2013-03-06 12:33:00,
2013-03-06 07:42:00,43.0,23.0,29.85,NE,52,8.0,-999.0,45,-99.99,,,-99.99,,2013-03-06 12:42:00,
2013-03-06 07:52:00,43.0,23.0,29.86,ENE,69,8.0,-999.0,44,-99.99,,,-99.99,,2013-03-06 12:52:00,
2013-03-06 08:02:00,43.0,25.0,29.86,NE,45,10.0,-999.0,48,-99.99,,,-99.99,,2013-03-06 13:02:00,
2013-03-06 08:12:00,43.0,25.0,29.86,NE,45,10.0,-999.0,48,-99.99,,,-99.99,,2013-03-06 13:12:00,
2013-03-06 08:22:00,44.0,26.0,29.88,ENE,66,8.0,-999.0,49,-99.99,,,-99.99,,2013-03-06 13:22:00,
2013-03-06 08:32:00,44.0,26.0,29.88,ENE,59,9.0,-999.0,49,-99.99,,,-99.99,,2013-03-06 13:32:00,
2013-03-06 08:42:00,44.0,26.0,29.88,ENE,59,9.0,-999.0,49,-99.99,,,-99.99,,2013-03-06 13:42:00,
2013-03-06 08:52:00,44.0,28.0,29.89,NE,38,8.0,-999.0,52,-99.99,,,-99.99,,2013-03-06 13:52:00,
2013-03-06 09:02:00,44.0,25.0,29.89,ENE,70,9.0,-999.0,46,-99.99,,,-99.99,,2013-03-06 14:02:00,
2013-03-06 09:11:00,44.0,25.0,29.89,ENE,70,9.0,-999.0,46,-99.99,,,-99.99,,2013-03-06 14:11:00,
2013-03-06 09:22:00,44.0,24.0,29.89,ENE,61,9.0,-999.0,45,-99.99,,,-99.99,,2013-03-06 14:22:00,
2013-03-06 09:32:00,44.0,26.0,29.90,ESE,122,10.0,-999.0,49,-99.99,,,-99.99,,2013-03-06 14:32:00,
2013-03-06 09:42:00,44.0,26.0,29.90,ESE,122,10.0,-999.0,49,-99.99,,,-99.99,,2013-03-06 14:42:00,
2013-03-06 09:52:00,45.0,29.0,29.88,ENE,61,7.0,-999.0,53,-99.99,,,-99.99,,2013-03-06 14:52:00,
2013-03-06 10:02:00,45.0,28.0,29.89,NE,46,5.0,-999.0,52,-99.99,,,-99.99,,2013-03-06 15:02:00,
2013-03-06 10:12:00,45.0,28.0,29.89,NE,46,5.0,-999.0,52,-99.99,,,-99.99,,2013-03-06 15:12:00,
2013-03-06 10:22:00,45.0,29.0,29.89,ENE,63,9.0,-999.0,54,-99.99,,,-99.99,,2013-03-06 15:22:00,
2013-03-06 10:32:00,46.0,28.0,29.90,ENE,62,7.0,-999.0,49,-99.99,,,-99.99,,2013-03-06 15:32:00,
2013-03-06 10:42:00,46.0,28.0,29.90,ENE,62,7.0,-999.0,49,-99.99,,,-99.99,,2013-03-06 15:42:00,
2013-03-06 10:52:00,46.0,27.0,29.90,East,84,8.0,-999.0,48,-99.99,,,-99.99,,2013-03-06 15:52:00,
2013-03-06 11:02:00,46.0,27.0,29.91,ENE,73,8.0,-999.0,48,-99.99,,,-99.99,,2013-03-06 16:02:00,
2013-03-06 11:12:00,46.0,27.0,29.91,ENE,73,8.0,-999.0,48,-99.99,,,-99.99,,2013-03-06 16:12:00,
2013-03-06 11:21:00,47.0,28.0,29.91,East,84,7.0,-999.0,48,-99.99,,,-99.99,,2013-03-06 16:21:00,
2013-03-06 11:32:00,47.0,27.0,29.91,ESE,120,6.0,-999.0,46,-99.99,,,-99.99,,2013-03-06 16:32:00,
2013-03-06 11:42:00,47.0,27.0,29.91,ESE,120,6.0,-999.0,46,-99.99,,,-99.99,,2013-03-06 16:42:00,
2013-03-06 11:52:00,48.0,28.0,29.90,ENE,70,6.0,-999.0,45,-99.99,,,-99.99,,2013-03-06 16:52:00,
2013-03-06 12:01:00,48.0,28.0,29.90,NE,38,7.0,-999.0,46,-99.99,,,-99.99,,2013-03-06 17:01:00,
2013-03-06 12:11:00,48.0,28.0,29.90,NE,38,7.0,-999.0,46,-99.99,,,-99.99,,2013-03-06 17:11:00,
2013-03-06 12:22:00,49.0,28.0,29.90,ENE,65,6.0,-999.0,44,-99.99,,,-99.99,,2013-03-06 17:22:00,
2013-03-06 12:32:00,49.0,29.0,29.90,ENE,68,7.0,-999.0,46,-99.99,,,-99.99,,2013-03-06 17:32:00,
2013-03-06 12:42:00,49.0,29.0,29.90,ENE,68,7.0,-999.0,46,-99.99,,,-99.99,,2013-03-06 17:42:00,
2013-03-06 12:52:00,49.0,28.0,29.89,East,94,8.0,-999.0,44,-99.99,,,-99.99,,2013-03-06 17:52:00,
2013-03-06 13:02:00,50.0,29.0,29.89,North,360,7.0,-999.0,45,-99.99,,,-99.99,,2013-03-06 18:02:00,
2013-03-06 13:29:00,50.0,29.0,29.88,ENE,64,7.0,-999.0,44,-99.99,,,-99.99,,2013-03-06 18:29:00,
2013-03-06 13:42:00,50.0,28.0,29.88,ENE,58,6.0,-999.0,43,-99.99,,,-99.99,,2013-03-06 18:42:00,
2013-03-06 13:52:00,50.0,29.0,29.87,NE,47,8.0,-999.0,45,-99.99,,,-99.99,,2013-03-06 18:52:00,
2013-03-06 14:02:00,51.0,30.0,29.86,ENE,62,7.0,-999.0,44,-99.99,,,-99.99,,2013-03-06 19:02:00,
2013-03-06 14:11:00,51.0,30.0,29.86,ENE,62,7.0,-999.0,44,-99.99,,,-99.99,,2013-03-06 19:11:00,
2013-03-06 14:22:00,51.0,30.0,29.86,ENE,62,7.0,-999.0,44,-99.99,,,-99.99,,2013-03-06 19:22:00,
2013-03-06 14:32:00,51.0,30.0,29.87,NE,56,8.0,-999.0,44,-99.99,,,-99.99,,2013-03-06 19:32:00,
2013-03-06 14:43:00,51.0,30.0,29.87,NE,56,8.0,-999.0,44,-99.99,,,-99.99,,2013-03-06 19:43:00,
2013-03-06 14:53:00,51.0,29.0,29.87,NNE,17,7.0,-999.0,42,-99.99,,,-99.99,,2013-03-06 19:53:00,
2013-03-06 15:02:00,52.0,30.0,29.88,ESE,110,7.0,-999.0,43,-99.99,,,-99.99,,2013-03-06 20:02:00,
2013-03-06 15:12:00,52.0,30.0,29.88,ESE,110,7.0,-999.0,43,-99.99,,,-99.99,,2013-03-06 20:12:00,
2013-03-06 15:22:00,52.0,31.0,29.88,NE,42,7.0,-999.0,45,-99.99,,,-99.99,,2013-03-06 20:22:00,
2013-03-06 15:32:00,51.0,29.0,29.88,East,92,7.0,-999.0,42,-99.99,,,-99.99,,2013-03-06 20:32:00,
2013-03-06 15:42:00,51.0,29.0,29.88,East,92,7.0,-999.0,42,-99.99,,,-99.99,,2013-03-06 20:42:00,
2013-03-06 15:52:00,51.0,30.0,29.88,SE,140,7.0,-999.0,44,-99.99,,,-99.99,,2013-03-06 20:52:00,
2013-03-06 16:02:00,52.0,30.0,29.89,ESE,117,7.0,-999.0,43,-99.99,,,-99.99,,2013-03-06 21:02:00,
2013-03-06 16:12:00,52.0,30.0,29.89,ESE,117,7.0,-999.0,43,-99.99,,,-99.99,,2013-03-06 21:12:00,
2013-03-06 16:22:00,52.0,30.0,29.89,NE,37,7.0,-999.0,43,-99.99,,,-99.99,,2013-03-06 21:22:00,
2013-03-06 16:32:00,51.0,29.0,29.89,NNE,14,8.0,-999.0,42,-99.99,,,-99.99,,2013-03-06 21:32:00,
2013-03-06 16:42:00,51.0,29.0,29.89,NNE,14,8.0,-999.0,42,-99.99,,,-99.99,,2013-03-06 21:42:00,
2013-03-06 16:52:00,52.0,30.0,29.90,NE,36,7.0,-999.0,43,-99.99,,,-99.99,,2013-03-06 21:52:00,
2013-03-06 17:02:00,52.0,31.0,29.91,NE,45,8.0,-999.0,44,-99.99,,,-99.99,,2013-03-06 22:02:00,
2013-03-06 17:11:00,52.0,31.0,29.91,NE,45,8.0,-999.0,44,-99.99,,,-99.99,,2013-03-06 22:11:00,
2013-03-06 17:22:00,52.0,31.0,29.91,SE,132,7.0,-999.0,45,-99.99,,,-99.99,,2013-03-06 22:22:00,
2013-03-06 17:32:00,52.0,31.0,29.91,East,92,7.0,-999.0,45,-99.99,,,-99.99,,2013-03-06 22:32:00,
2013-03-06 17:42:00,52.0,31.0,29.91,East,92,7.0,-999.0,45,-99.99,,,-99.99,,2013-03-06 22:42:00,
2013-03-06 17:52:00,52.0,31.0,29.92,NNE,24,6.0,-999.0,45,-99.99,,,-99.99,,2013-03-06 22:52:00,
2013-03-06 18:02:00,52.0,31.0,29.93,ESE,119,6.0,-999.0,45,-99.99,,,-99.99,,2013-03-06 23:02:00,
2013-03-06 18:11:00,52.0,31.0,29.93,ESE,119,6.0,-999.0,45,-99.99,,,-99.99,,2013-03-06 23:11:00,
2013-03-06 18:22:00,51.0,31.0,29.94,East,93,6.0,-999.0,46,-99.99,,,-99.99,,2013-03-06 23:22:00,
2013-03-06 18:32:00,51.0,31.0,29.95,ENE,57,6.0,-999.0,47,-99.99,,,-99.99,,2013-03-06 23:32:00,
2013-03-06 18:42:00,51.0,31.0,29.95,ENE,57,6.0,-999.0,47,-99.99,,,-99.99,,2013-03-06 23:42:00,
2013-03-06 18:52:00,51.0,33.0,29.96,NNE,24,5.0,-999.0,49,-99.99,,,-99.99,,2013-03-06 23:52:00,
2013-03-06 19:02:00,50.0,31.0,29.98,ENE,71,6.0,-999.0,47,-99.99,,,-99.99,,2013-03-07 00:02:00,
2013-03-06 19:11:00,50.0,31.0,29.98,ENE,71,6.0,-999.0,47,-99.99,,,-99.99,,2013-03-07 00:11:00,
2013-03-06 19:22:00,50.0,32.0,29.99,SE,145,4.0,-999.0,50,-99.99,,,-99.99,,2013-03-07 00:22:00,
2013-03-06 19:32:00,50.0,32.0,30.00,ESE,120,6.0,-999.0,49,-99.99,,,-99.99,,2013-03-07 00:32:00,
2013-03-06 19:42:00,50.0,32.0,30.00,ESE,120,6.0,-999.0,49,-99.99,,,-99.99,,2013-03-07 00:42:00,
2013-03-06 19:52:00,49.0,32.0,30.00,East,93,5.0,-999.0,51,-99.99,,,-99.99,,2013-03-07 00:52:00,
2013-03-06 20:02:00,49.0,32.0,30.01,East,82,6.0,-999.0,51,-99.99,,,-99.99,,2013-03-07 01:02:00,
2013-03-06 20:11:00,49.0,32.0,30.01,East,82,6.0,-999.0,51,-99.99,,,-99.99,,2013-03-07 01:11:00,
2013-03-06 20:22:00,49.0,32.0,30.02,ENE,63,5.0,-999.0,51,-99.99,,,-99.99,,2013-03-07 01:22:00,
2013-03-06 20:32:00,49.0,33.0,30.03,ESE,107,4.0,-999.0,53,-99.99,,,-99.99,,2013-03-07 01:32:00,
2013-03-06 20:42:00,49.0,33.0,30.03,ESE,107,4.0,-999.0,53,-99.99,,,-99.99,,2013-03-07 01:42:00,
2013-03-06 20:52:00,48.0,32.0,30.04,SE,128,4.0,-999.0,53,-99.99,,,-99.99,,2013-03-07 01:52:00,
2013-03-06 21:01:00,48.0,32.0,30.05,ESE,113,4.0,-999.0,54,-99.99,,,-99.99,,2013-03-07 02:01:00,
2013-03-06 21:11:00,48.0,32.0,30.05,ESE,113,4.0,-999.0,54,-99.99,,,-99.99,,2013-03-07 02:11:00,
2013-03-06 21:21:00,48.0,33.0,30.06,ENE,74,3.0,-999.0,55,-99.99,,,-99.99,,2013-03-07 02:21:00,
2013-03-06 21:32:00,48.0,32.0,30.06,East,88,4.0,-999.0,54,-99.99,,,-99.99,,2013-03-07 02:32:00,
2013-03-06 21:42:00,48.0,32.0,30.06,East,88,4.0,-999.0,54,-99.99,,,-99.99,,2013-03-07 02:42:00,
2013-03-06 21:51:00,48.0,32.0,30.06,East,88,4.0,-999.0,54,-99.99,,,-99.99,,2013-03-07 02:51:00,
2013-03-06 22:02:00,47.0,31.0,30.07,ESE,120,4.0,-999.0,54,-99.99,,,-99.99,,2013-03-07 03:02:00,
2013-03-06 22:11:00,47.0,31.0,30.07,ESE,120,4.0,-999.0,54,-99.99,,,-99.99,,2013-03-07 03:11:00,
2013-03-06 22:22:00,47.0,32.0,30.08,SE,131,3.0,-999.0,55,-99.99,,,-99.99,,2013-03-07 03:22:00,
2013-03-06 22:32:00,47.0,32.0,30.09,ESE,105,4.0,-999.0,55,-99.99,,,-99.99,,2013-03-07 03:32:00,
2013-03-06 22:42:00,47.0,32.0,30.09,ESE,105,4.0,-999.0,55,-99.99,,,-99.99,,2013-03-07 03:42:00,
2013-03-06 22:52:00,46.0,31.0,30.09,SSE,158,4.0,-999.0,56,-99.99,,,-99.99,,2013-03-07 03:52:00,
2013-03-06 23:02:00,46.0,31.0,30.09,ENE,76,3.0,-999.0,56,-99.99,,,-99.99,,2013-03-07 04:02:00,
2013-03-06 23:12:00,46.0,31.0,30.09,ENE,76,3.0,-999.0,56,-99.99,,,-99.99,,2013-03-07 04:12:00,
2013-03-06 23:22:00,46.0,31.0,30.09,East,100,3.0,-999.0,56,-99.99,,,-99.99,,2013-03-07 04:22:00,
2013-03-06 23:32:00,46.0,31.0,30.09,East,79,3.0,-999.0,56,-99.99,,,-99.99,,2013-03-07 04:32:00,
2013-03-06 23:42:00,46.0,31.0,30.09,East,79,3.0,-999.0,56,-99.99,,,-99.99,,2013-03-07 04:42:00,
2013-03-06 23:52:00,45.0,31.0,30.10,SE,126,3.0,-999.0,57,-99.99,,,-99.99,,2013-03-07 04:52:00,